Theta_e
329 329 330 340 340 341 342 343 344 345 346 347 347 348 349 349 349 348 348 348 349 349 349 348 348 349 350 350 349 350 350 350 349 350 349 350 350 350 350 349 350 350 350 350 349 349 350 350 350 350 350 350 350 350 349 349 349 349 348 348 348 349 349 349 349 349 349 349 349 350 350 351 351 349 347 353 355 354 354 354 353 349 350 350 353
328 328 330 333 339 340 340 341 343 343 344 345 346 347 348 348 348 347 347 348 348 348 348 348 347 348 348 349 349 349 349 349 349 348 348 349 349 348 349 349 349 349 350 350 350 349 349 349 349 349 349 350 350 349 349 349 349 349 349 349 348 348 348 349 349 349 349 348 348 348 347 348 350 350 348 353 354 354 355 353 353 350 346 355 353
328 328 329 332 338 338 338 340 341 342 342 342 344 345 345 345 346 346 346 346 347 347 347 347 347 347 348 348 348 348 349 348 348 348 348 348 348 348 348 348 349 348 349 349 349 349 348 349 349 349 349 348 348 349 348 348 348 348 348 349 349 348 349 348 349 348 348 348 348 346 345 345 347 347 349 355 354 354 355 353 352 353 347 354 353
327 327 328 332 338 338 337 338 339 340 340 341 341 343 343 343 344 345 345 346 346 346 346 347 347 347 348 347 347 347 346 347 347 347 347 347 347 347 346 347 348 348 348 349 348 348 348 348 348 347 348 348 347 348 348 347 348 348 348 349 348 348 348 348 348 348 347 347 346 345 342 340 341 345 355 355 354 355 353 353 352 354 353 353 354
326 326 326 326 327 336 336 337 337 337 338 339 340 341 341 342 343 343 343 343 344 345 344 345 345 345 345 346 345 345 345 345 345 345 345 345 345 344 345 345 346 347 348 349 348 347 347 347 347 347 348 347 347 347 347 347 347 347 348 348 348 348 348 348 347 347 346 345 344 343 339 340 339 348 354 355 355 355 353 353 354 353 353 354 354
325 325 326 325 325 329 336 336 336 336 336 337 338 339 340 340 342 342 341 342 343 342 343 343 343 342 343 343 342 342 342 342 342 342 342 342 342 342 342 343 344 345 346 348 348 348 348 347 346 347 346 345 345 346 346 347 347 347 347 348 348 348 347 346 346 345 344 343 342 339 339 339 336 350 354 353 354 354 354 355 352 351 353 353 353
325 324 325 324 324 329 335 335 335 335 335 335 336 337 338 338 339 339 340 340 340 340 341 340 340 341 340 340 340 340 340 340 340 340 340 340 340 339 339 340 341 343 344 346 346 346 345 345 345 344 343 341 341 342 344 345 346 346 346 346 346 345 344 342 341 341 342 341 338 339 339 338 339 339 350 348 352 354 353 350 347 349 350 351 351
323 323 324 323 324 332 335 334 334 334 335 335 336 336 337 337 337 337 337 338 338 337 338 338 338 338 337 337 338 337 337 338 338 338 337 337 337 337 336 336 338 339 341 343 344 343 342 342 342 340 339 337 336 337 339 340 341 342 342 342 341 341 338 337 337 338 340 339 338 338 337 338 339 340 351 348 349 352 350 349 348 348 349 350 350
321 322 323 322 324 333 334 334 334 335 335 335 335 336 336 336 335 336 336 336 336 336 336 336 336 336 336 336 336 335 335 336 335 335 335 334 334 334 333 333 333 335 336 338 339 339 338 338 337 336 335 333 332 332 333 334 335 336 336 336 335 335 332 332 334 336 337 337 337 336 336 338 338 338 348 349 350 350 349 349 349 349 350 350 349
319 320 320 319 321 332 333 333 334 334 334 334 334 334 334 334 334 334 334 334 334 334 334 334 334 333 333 332 333 333 333 333 332 331 331 330 330 330 330 330 329 330 330 332 333 333 333 332 332 331 330 329 328 328 328 329 330 330 330 330 329 329 327 327 331 332 333 335 336 336 336 343 338 337 346 348 349 350 349 345 346 347 349 349 349
318 318 318 319 320 331 331 332 331 331 332 332 332 332 332 332 331 332 332 332 332 332 331 331 331 330 329 329 329 329 329 329 329 328 327 327 327 327 327 327 327 327 327 329 330 330 330 329 329 329 328 327 326 326 326 325 326 327 327 327 326 325 324 323 326 323 326 331 333 334 336 342 335 336 349 347 349 349 349 346 346 349 349 349 349
316 316 316 317 327 330 330 330 330 330 330 330 331 331 330 330 329 329 329 329 329 329 329 329 328 328 327 327 327 326 327 327 327 326 326 326 326 326 326 326 326 326 326 326 327 327 327 327 327 326 326 325 324 324 324 324 324 324 325 325 325 324 322 321 317 316 321 327 329 332 333 335 336 339 345 345 346 346 348 349 349 348 348 348 349
314 315 314 314 318 328 328 329 329 329 329 329 330 330 329 328 327 327 327 327 327 327 327 327 326 325 325 325 325 325 325 325 325 325 325 325 325 325 325 324 324 324 324 324 324 324 325 325 325 324 323 323 323 323 322 323 324 324 323 324 323 322 322 320 311 311 317 321 325 328 330 332 334 341 345 345 346 346 346 346 347 347 348 348 349
312 312 312 313 316 325 327 328 328 328 328 328 328 327 327 327 326 325 325 325 325 325 325 325 324 324 324 324 324 323 323 324 323 324 324 323 322 322 322 322 323 323 323 322 322 322 323 323 323 322 321 321 322 322 322 323 322 321 321 321 320 320 320 318 316 309 310 314 320 324 327 331 333 342 343 344 345 345 346 345 344 345 346 347 348
311 310 311 312 313 316 324 326 326 326 326 326 326 326 326 326 325 325 325 324 323 323 323 323 323 323 323 323 322 321 320 321 321 321 321 321 321 320 319 319 320 320 320 320 319 320 320 321 320 320 320 320 320 321 321 321 321 320 320 319 318 318 317 313 312 308 307 310 314 320 324 328 336 340 341 341 343 345 345 345 344 344 345 345 346
310 309 310 309 311 313 315 322 324 324 325 325 325 326 326 325 324 324 323 323 322 322 322 322 322 321 321 321 321 319 318 317 317 317 318 318 319 318 317 317 318 318 318 318 318 318 319 319 320 319 318 319 319 319 320 321 319 318 318 317 316 317 318 316 309 307 305 305 308 316 322 328 336 341 342 342 343 343 344 344 344 344 344 344 344
308 309 308 307 308 309 311 312 317 322 322 322 323 322 323 323 324 323 322 321 321 321 320 320 319 318 318 317 317 317 316 315 314 313 314 316 317 317 316 317 317 318 318 318 318 318 319 319 319 318 318 318 317 317 318 315 316 315 314 313 315 317 317 315 308 306 304 307 313 320 323 327 334 334 340 342 343 344 344 344 343 343 342 342 343
305 306 306 306 306 307 308 310 311 310 311 316 319 320 320 321 321 321 320 319 319 318 318 317 316 315 314 313 314 314 314 315 314 313 312 314 316 316 315 316 316 317 318 317 317 318 318 317 317 318 317 315 316 315 315 315 315 314 313 313 315 315 315 314 305 306 306 314 311 313 311 319 325 329 334 338 341 343 343 343 343 342 343 342 342
302 303 304 304 304 304 306 306 306 306 305 306 308 314 318 318 318 318 317 317 317 315 315 314 314 314 313 312 312 311 311 311 311 311 310 311 312 313 313 314 315 316 316 315 315 316 316 315 316 315 313 313 313 314 313 314 313 313 313 313 313 312 309 306 303 303 305 304 307 306 307 321 323 325 328 331 336 337 337 338 339 339 340 340 339
300 301 302 302 302 302 303 303 303 303 303 303 305 307 314 315 315 315 314 314 313 313 312 312 312 312 312 311 309 306 308 307 309 307 308 308 310 310 311 311 312 314 313 313 314 314 314 314 313 313 312 311 311 311 311 311 312 312 311 312 311 307 301 300 301 302 303 304 309 305 315 319 320 323 325 326 327 328 329 332 335 335 336 338 338
301 299 299 300 300 300 301 302 302 302 301 301 302 304 309 313 313 313 311 311 310 310 309 309 308 309 309 310 307 301 299 299 300 302 308 302 308 311 310 309 309 310 310 310 311 311 311 311 311 311 310 309 308 309 309 310 310 310 311 311 307 300 300 301 301 302 303 303 306 305 316 316 319 321 322 323 323 324 325 327 330 330 330 331 332
298 297 298 299 299 300 301 301 301 300 300 301 302 303 305 306 302 303 303 307 309 309 306 302 307 300 308 306 302 301 298 297 299 307 303 306 306 310 309 307 308 308 307 308 309 309 309 309 309 308 307 307 306 299 301 304 308 309 310 308 300 299 300 301 300 300 301 300 305 308 314 315 317 319 321 321 321 321 322 322 324 325 326 326 327
296 297 297 298 299 300 300 300 300 300 299 299 300 301 300 298 299 300 302 306 305 302 301 303 299 299 299 299 300 298 297 297 299 301 302 308 304 309 306 305 305 305 304 305 306 307 306 307 307 306 305 304 297 296 297 297 298 304 303 300 298 299 300 300 300 299 300 302 303 311 312 314 316 318 320 321 321 321 321 321 322 323 324 324 325
296 297 297 299 298 299 299 300 300 300 299 298 299 298 298 298 298 298 299 299 300 300 298 298 298 298 298 298 297 299 298 297 308 308 305 297 299 306 305 305 304 304 304 300 302 303 303 304 305 304 301 297 294 294 295 295 297 297 297 297 298 299 299 299 298 299 299 302 302 310 311 313 314 316 319 320 320 320 320 321 321 322 323 324 325
297 297 297 298 298 299 298 299 300 300 300 299 298 298 298 298 296 297 297 297 298 298 298 298 297 297 297 298 298 298 297 296 296 296 295 295 294 294 294 295 294 294 300 293 293 294 294 293 293 296 293 294 293 293 294 294 295 295 295 296 297 298 298 299 298 299 299 299 301 309 311 311 313 315 317 318 319 319 320 321 321 322 323 324 325
296 295 296 298 298 299 298 299 300 300 300 299 298 299 299 297 296 297 297 297 298 297 297 298 297 296 296 297 299 296 296 296 295 295 295 294 294 293 293 293 292 292 294 292 292 292 291 291 292 293 292 293 293 293 293 295 293 294 294 295 296 296 297 297 297 298 298 299 300 309 310 310 311 313 315 317 318 318 319 320 320 321 323 323 324
296 296 297 297 298 298 298 299 299 299 299 299 298 299 297 297 297 298 297 297 297 297 296 296 297 296 296 297 296 295 294 294 294 294 293 294 293 293 292 292 291 291 293 291 291 291 291 291 291 292 292 292 292 293 293 293 293 293 293 294 294 295 296 296 296 296 297 298 301 306 309 309 310 312 313 315 317 318 319 319 320 321 322 323 323
296 296 296 297 298 298 298 298 298 298 298 298 298 298 297 297 297 300 298 298 298 296 295 295 297 295 295 296 296 294 294 293 293 293 293 293 293 292 291 291 291 291 292 292 291 290 290 290 291 291 292 292 292 292 292 293 293 292 293 293 294 294 294 294 294 295 296 296 298 302 306 308 308 309 311 314 316 317 318 319 320 321 322 322 322
295 296 296 296 297 298 298 298 298 298 298 298 297 297 297 297 298 298 296 301 296 296 295 296 295 295 295 295 295 293 293 293 292 293 292 293 292 292 291 291 291 290 291 290 290 290 290 290 291 291 291 291 291 291 292 292 292 292 292 293 293 293 293 293 293 293 293 294 295 297 304 306 307 308 309 311 313 315 317 318 319 320 321 321 321
297 296 296 296 297 298 298 298 298 298 298 297 296 296 297 297 297 297 296 299 296 295 295 294 293 294 293 294 295 293 292 292 292 291 291 291 291 291 291 291 290 290 290 290 291 290 290 290 290 290 291 291 291 291 292 291 291 292 291 292 292 292 292 292 292 292 293 293 294 295 301 303 305 306 307 308 311 313 315 316 317 318 319 320 320
297 296 296 296 297 297 297 298 298 299 298 296 295 296 297 296 297 296 296 296 296 296 295 294 293 293 294 293 294 294 293 292 291 291 291 290 291 291 290 290 289 289 289 289 290 291 290 290 289 290 290 290 290 290 290 290 290 290 291 291 291 291 291 292 292 292 292 293 293 293 295 301 303 305 306 307 309 310 312 313 315 316 316 317 318
296 296 296 296 296 297 297 297 298 298 298 296 296 296 296 296 296 295 295 295 296 295 294 293 294 293 294 293 292 293 294 292 291 291 291 290 290 290 290 289 289 289 289 289 290 290 290 289 290 291 290 289 290 289 290 290 289 289 290 290 291 291 291 291 291 291 291 292 292 292 293 295 301 303 305 307 308 309 310 311 312 313 314 316 317
297 297 296 296 296 296 297 297 297 298 297 296 296 296 296 295 295 294 294 296 295 294 293 293 293 294 294 292 292 293 293 292 291 292 293 290 290 290 289 290 289 289 289 290 289 288 288 288 289 290 289 289 289 289 290 289 288 288 289 289 290 290 290 290 290 290 290 291 291 291 292 294 294 299 302 305 307 307 308 309 310 311 313 314 315
297 296 295 295 297 297 298 297 297 297 297 296 295 295 295 295 295 294 295 295 294 293 293 293 294 293 293 292 292 293 292 291 291 290 290 290 290 290 289 288 288 289 289 288 287 288 288 288 289 288 291 289 288 288 288 288 288 288 288 288 289 289 289 289 289 290 290 290 290 291 292 292 293 294 296 302 305 306 307 308 309 310 311 311 312
296 295 295 295 296 296 297 296 297 296 297 295 295 295 295 295 294 294 295 294 293 293 292 293 293 293 292 291 291 292 291 291 291 290 289 289 289 288 288 288 289 288 287 288 287 287 287 287 289 287 287 287 287 288 288 287 287 287 287 288 288 288 289 289 289 289 289 290 290 291 291 292 292 293 295 294 298 302 306 308 308 309 309 310 310
297 296 296 295 295 295 297 295 296 295 295 295 295 295 295 295 294 296 294 293 293 293 292 293 292 292 292 291 291 291 291 291 290 290 289 288 288 288 288 289 288 288 287 288 288 286 287 288 288 287 286 286 287 286 287 286 286 287 287 287 288 289 288 288 288 288 289 289 290 290 291 291 292 292 296 295 295 297 303 306 307 308 308 308 308
298 296 296 295 294 294 296 294 295 294 294 294 294 294 294 293 294 294 294 293 293 292 292 292 292 292 291 291 291 291 290 290 290 289 289 289 287 288 287 288 288 287 287 286 286 288 286 288 286 288 286 285 285 285 286 286 286 287 287 287 288 288 287 287 288 288 290 289 289 290 291 291 293 297 294 294 295 296 299 304 306 307 308 308 307
298 297 296 295 294 294 294 294 294 294 294 294 293 294 293 293 293 293 294 292 292 292 292 292 291 291 291 290 290 291 290 290 289 289 288 288 288 288 288 288 288 287 286 285 286 286 286 286 285 286 286 285 284 284 285 285 287 287 287 287 287 287 287 287 288 290 288 288 289 289 290 291 292 293 293 294 294 295 296 299 303 305 306 307 306
299 296 295 295 294 293 293 294 294 293 293 293 293 293 292 292 291 292 292 291 291 291 291 291 290 291 290 290 290 290 290 289 289 288 288 288 287 287 287 288 287 286 286 285 285 287 286 285 285 285 286 286 285 285 285 286 286 286 286 286 286 287 287 287 288 287 287 288 289 292 293 292 293 293 294 294 294 294 295 296 295 295 296 302 306
297 296 295 294 293 293 292 293 293 293 293 293 292 291 291 291 290 290 290 290 290 290 290 290 290 290 291 290 290 289 289 289 288 288 288 287 286 287 287 287 286 286 285 285 284 284 284 284 285 285 284 285 287 285 285 285 284 284 285 286 286 286 285 286 286 286 287 286 287 289 289 291 292 292 292 293 294 293 293 293 294 292 294 299 303
296 295 294 293 293 293 292 292 293 292 293 292 292 291 290 289 289 290 290 291 290 290 290 289 289 289 290 290 289 289 289 289 288 287 287 288 287 286 286 286 286 287 286 285 285 285 285 285 285 285 285 284 284 284 284 284 283 283 284 283 284 284 286 286 285 286 286 287 287 287 288 290 290 290 290 290 288 288 289 290 291 293 293 292 293
294 294 294 293 293 292 292 292 292 292 293 293 292 292 291 291 291 290 290 290 289 289 289 289 289 290 290 289 289 289 289 288 288 287 287 287 286 285 286 286 286 286 286 286 285 288 285 284 284 283 284 284 283 284 285 284 281 280 280 281 282 282 284 284 284 285 285 285 286 285 285 285 285 285 286 287 287 288 289 291 291 290 290 291 291
294 294 294 292 292 292 292 292 292 292 292 293 292 291 291 290 290 289 290 289 289 289 289 289 289 289 289 289 289 288 288 288 288 287 287 286 286 286 286 285 285 286 285 284 284 283 284 283 283 283 282 282 284 285 284 283 280 281 281 279 278 279 282 281 282 284 286 286 285 284 285 285 286 286 287 287 287 287 288 289 289 290 291 291 292
292 291 291 292 292 292 292 292 292 292 292 292 292 291 291 289 288 289 289 288 287 288 288 288 288 288 288 288 288 288 288 287 287 287 287 286 286 285 285 284 285 285 284 283 283 282 283 283 283 284 283 280 280 280 284 283 282 281 277 278 278 278 276 277 280 284 285 284 283 284 285 286 286 286 285 285 285 286 287 289 290 290 291 292 291
291 292 291 292 293 292 292 292 292 292 292 292 291 290 290 288 288 288 288 287 287 286 286 285 287 288 287 287 288 288 288 287 287 287 287 286 285 285 284 284 284 284 284 283 282 283 283 282 283 283 282 281 280 280 282 283 282 283 280 278 276 276 275 278 281 281 281 282 283 284 285 285 284 284 284 285 286 287 288 288 288 289 290 290 290
290 291 292 292 292 292 292 292 292 291 291 291 291 290 290 289 287 286 286 286 285 285 285 286 286 287 287 288 287 287 287 287 286 286 286 286 285 285 284 284 283 283 284 283 283 282 282 282 282 282 281 282 281 281 279 282 283 283 283 281 281 276 277 279 279 276 281 283 283 283 282 282 283 284 285 285 285 286 287 288 288 289 289 289 289
290 290 289 290 291 292 291 291 291 291 291 291 290 290 289 289 288 288 287 287 286 286 287 287 287 287 287 287 287 287 287 287 286 286 286 286 285 285 284 284 284 283 284 283 282 282 282 282 283 282 282 285 281 280 279 280 280 281 282 282 282 282 281 278 276 278 275 279 279 281 282 282 283 284 284 284 285 286 286 286 286 286 286 287 287
289 287 289 289 289 290 290 291 291 291 290 291 290 290 289 289 288 288 288 287 287 287 287 287 287 287 286 287 286 286 286 286 286 285 285 285 285 284 284 283 283 283 283 282 282 282 283 283 283 282 282 282 281 280 279 280 279 279 282 280 280 281 280 279 279 277 277 275 276 280 281 282 282 282 283 283 283 283 283 284 284 284 285 285 286
287 287 288 289 289 289 289 289 289 289 290 290 290 290 290 289 288 288 287 287 287 287 286 287 286 286 286 286 286 285 285 285 285 285 284 284 285 284 283 283 283 282 284 283 282 282 281 281 281 281 281 281 280 280 280 279 278 278 278 278 278 278 278 278 279 278 276 275 275 276 277 279 281 281 282 282 282 283 283 283 284 285 285 285 285
286 288 287 287 287 287 288 288 287 288 289 289 289 289 289 289 288 287 287 286 286 285 285 285 285 285 285 285 285 285 285 284 284 284 284 284 283 283 283 282 282 282 283 281 281 281 281 281 281 280 280 280 280 280 280 279 280 279 279 279 278 277 277 277 276 276 277 277 275 275 277 276 276 278 281 282 282 282 282 283 283 283 283 283 284
285 285 285 286 286 286 287 287 287 287 287 288 288 288 288 288 288 287 287 286 285 285 284 284 285 285 284 284 284 284 284 284 284 283 283 283 283 283 282 282 282 283 282 281 281 281 280 280 281 280 280 280 280 280 281 281 280 279 279 279 277 278 277 276 276 277 276 275 275 276 277 277 277 276 278 280 282 282 282 282 282 282 282 283 283
Wind_Speed
1 3 1 3 7 8 10 10 10 10 11 12 12 13 14 14 14 13 13 13 12 13 12 11 11 13 13 13 13 13 13 13 13 13 13 12 11 10 10 9 8 7 7 7 7 7 7 7 7 7 8 9 10 10 10 11 11 11 11 10 11 11 11 11 11 9 9 9 10 11 11 11 11 9 6 4 3 1 3 3 3 2 2 4 7
4 2 1 2 7 9 8 9 10 9 10 10 11 12 14 14 13 13 13 13 13 13 13 12 11 12 13 13 14 14 14 14 13 14 13 13 12 11 11 11 10 9 9 9 8 7 8 8 7 8 8 9 10 11 11 11 11 11 11 11 11 11 11 11 11 11 10 10 11 11 11 10 10 9 7 2 3 3 2 3 2 1 1 4 5
5 3 1 2 7 8 8 9 9 9 9 10 10 10 11 13 13 12 12 12 13 12 12 11 11 12 13 13 14 14 14 13 13 13 13 13 13 12 12 12 11 10 10 10 10 10 10 10 9 9 9 9 9 10 10 11 11 11 11 11 11 11 11 11 12 12 12 11 11 13 11 8 8 8 4 3 3 3 3 3 3 2 1 5 5
6 3 2 3 6 7 8 9 9 8 9 10 9 9 10 10 11 11 11 12 11 11 11 12 12 12 13 13 13 13 13 13 12 13 13 12 13 13 13 12 12 12 11 11 10 10 10 10 10 10 11 10 10 10 11 11 11 11 11 11 11 11 11 11 11 12 13 13 12 11 5 6 5 6 4 6 6 6 4 4 3 2 4 6 6
7 4 3 3 3 6 9 8 8 8 8 8 8 9 9 10 10 11 10 10 11 10 10 11 11 12 12 12 13 13 12 12 12 12 12 12 12 12 12 12 12 13 12 13 13 13 12 13 13 12 14 13 12 11 11 10 10 11 11 11 11 12 12 11 11 11 12 12 11 8 5 5 5 2 6 7 7 6 4 4 3 4 3 4 5
6 4 3 3 3 4 9 9 9 8 7 7 7 7 9 9 10 10 10 10 10 10 11 12 11 10 11 12 12 12 12 11 11 10 11 11 12 12 12 12 12 12 13 14 15 16 16 15 15 16 16 15 15 15 14 13 12 12 12 13 14 14 15 14 13 12 11 12 10 5 6 5 2 2 5 5 6 6 5 5 5 6 5 6 6
7 4 4 3 2 4 8 10 10 9 8 7 7 7 8 8 9 9 9 9 9 10 10 10 10 10 10 11 11 11 10 10 10 11 11 12 12 13 13 13 13 13 13 15 16 16 16 16 16 15 15 15 15 14 14 15 14 15 15 15 14 13 13 13 13 12 11 7 5 6 5 4 4 3 7 5 4 6 6 6 7 8 8 9 9
6 5 4 3 2 4 7 10 10 10 10 9 8 8 9 9 9 9 8 9 9 9 9 9 10 10 10 10 10 10 10 11 11 12 13 13 13 13 14 14 14 14 14 15 15 16 15 15 15 15 14 14 14 13 13 13 13 13 13 13 13 13 13 13 12 11 10 5 5 5 5 4 4 4 6 8 3 5 7 7 7 7 8 8 6
7 5 5 3 3 6 8 10 11 11 10 10 10 10 10 10 10 10 10 10 9 9 9 10 10 11 11 12 11 12 12 12 12 13 13 13 13 13 14 14 14 14 14 14 14 15 14 14 14 14 14 14 13 12 12 12 12 12 12 12 12 12 13 13 12 11 6 4 5 5 6 5 4 4 5 8 7 6 7 6 5 6 6 7 5
6 5 4 4 4 7 10 10 11 10 11 11 11 10 11 11 11 11 11 11 11 11 11 11 12 12 13 13 13 13 13 13 13 13 13 13 14 14 14 14 14 14 14 14 14 14 14 14 13 13 13 13 13 13 13 12 11 11 10 10 10 10 11 12 12 8 6 5 5 5 5 7 4 3 5 8 5 5 5 5 3 4 3 5 6
7 6 4 4 4 8 11 11 11 10 10 10 10 11 11 11 11 12 11 11 12 12 12 12 12 13 13 13 13 13 14 14 14 14 14 14 14 14 14 15 15 15 15 15 15 15 15 15 14 14 14 14 13 13 13 13 12 12 12 11 11 11 11 11 9 6 6 7 6 5 5 8 3 3 6 8 4 4 2 2 1 3 5 6 7
8 5 4 3 6 9 11 11 11 11 11 11 11 11 11 11 12 12 12 12 12 12 12 13 13 13 13 13 13 13 14 14 14 14 14 14 14 14 15 15 15 15 15 15 16 15 15 15 16 15 15 15 14 14 13 13 13 12 12 13 12 12 12 11 6 5 5 6 7 7 6 5 4 3 6 7 5 4 3 5 6 7 7 6 7
8 6 4 3 4 9 11 12 11 11 11 11 12 12 12 12 12 12 12 12 12 12 12 13 13 13 13 13 13 13 13 14 14 14 14 14 14 15 15 15 15 15 15 15 15 15 15 16 16 16 16 16 16 15 14 14 13 13 14 14 14 14 13 13 5 5 5 5 6 7 7 5 5 7 9 6 6 4 4 5 6 7 8 8 8
9 7 4 4 3 8 10 11 12 12 12 12 12 13 12 12 12 12 12 12 12 12 13 13 13 13 13 13 13 13 13 14 14 14 14 14 15 15 15 15 15 15 15 15 15 15 15 15 16 16 16 15 15 15 15 15 14 14 14 14 14 14 14 9 8 6 6 5 5 6 7 6 4 9 10 8 6 4 3 4 4 5 7 8 9
10 8 6 4 4 5 10 11 12 13 13 13 13 13 13 13 13 13 13 13 13 13 13 13 13 13 13 14 14 14 14 14 14 14 14 14 14 14 14 14 14 14 14 14 14 14 14 14 14 14 14 14 14 14 14 14 14 14 15 15 15 14 13 6 6 5 6 6 6 6 7 7 8 12 12 10 8 4 2 3 4 4 5 6 7
9 9 7 5 5 4 5 8 10 11 13 13 13 14 14 13 13 13 13 13 13 13 13 14 13 13 13 14 14 14 14 15 14 14 14 14 14 14 14 14 14 14 14 14 14 14 14 14 14 14 13 14 13 13 13 12 13 13 14 15 15 15 12 8 6 5 6 6 6 6 6 6 11 14 12 10 9 8 5 5 5 5 5 5 5
9 8 8 6 6 5 5 4 6 10 9 10 12 13 13 13 13 13 13 13 14 14 14 14 14 14 13 13 14 14 14 14 15 14 14 14 14 14 14 14 14 14 14 14 15 15 15 15 15 15 14 14 14 14 13 13 14 14 14 15 16 16 13 10 5 5 5 5 5 6 6 5 10 14 12 11 10 9 8 9 9 8 8 8 7
8 8 9 8 6 5 5 4 5 4 4 7 10 12 13 13 13 13 13 13 13 14 14 14 14 14 14 13 13 13 13 14 14 15 15 14 14 14 15 15 15 15 15 15 16 16 16 17 17 16 16 17 16 16 16 15 15 15 15 16 16 15 12 9 5 6 5 5 5 5 6 9 15 13 13 12 11 11 10 10 11 12 12 10 10
8 8 8 8 7 6 6 5 5 4 5 4 4 7 12 13 13 13 12 13 13 13 13 13 13 13 13 13 13 13 12 13 13 14 14 13 13 12 14 14 14 13 13 13 14 14 14 15 16 16 17 18 18 18 18 17 17 16 17 17 14 11 11 8 7 7 7 7 7 7 7 15 16 15 15 13 13 13 13 13 12 12 12 13 13
6 8 8 8 8 8 7 6 6 5 5 5 5 5 9 11 12 12 13 13 13 13 13 12 11 11 11 11 11 8 7 6 10 7 11 11 10 7 11 12 12 12 12 13 13 13 13 13 14 15 16 16 17 17 17 18 18 18 18 16 13 12 7 6 6 7 7 7 7 7 10 17 16 15 14 14 14 14 15 15 14 14 13 13 13
4 7 8 8 9 9 9 7 7 7 6 6 5 5 6 10 9 11 12 12 12 12 12 10 8 7 6 8 9 6 4 4 3 3 5 3 3 5 9 11 12 11 13 13 13 13 13 14 14 15 15 15 15 12 12 14 15 16 15 13 12 7 7 6 7 6 6 6 6 6 14 16 16 16 15 14 14 14 14 14 15 15 15 14 13
8 7 7 8 10 9 10 9 8 8 8 6 5 4 5 6 5 5 5 6 7 7 6 4 4 3 7 6 4 4 5 4 3 4 2 1 2 3 9 11 12 12 13 13 14 14 14 14 14 15 16 15 14 7 7 9 11 12 11 10 7 5 6 6 6 6 6 6 6 8 17 17 16 16 15 15 15 15 14 15 15 15 16 16 15
8 7 8 10 9 9 9 9 8 9 9 7 6 6 5 5 5 5 4 5 5 4 4 4 4 4 6 6 6 6 5 4 4 4 3 3 2 9 10 11 12 12 13 13 13 14 14 13 13 14 14 12 7 7 7 7 7 9 9 7 6 6 6 6 5 6 6 6 6 11 17 17 17 17 16 15 15 14 14 15 15 15 15 16 16
12 11 11 7 9 9 10 9 9 10 9 7 6 6 6 5 5 5 5 5 4 4 4 4 4 5 6 6 6 5 4 4 5 7 6 4 6 7 9 9 9 9 10 7 9 11 12 11 12 11 7 5 6 6 6 6 6 7 7 7 6 6 6 6 6 6 6 5 5 12 16 17 17 17 17 16 16 15 15 15 15 16 16 16 16
11 7 5 9 10 10 9 9 9 9 9 8 8 8 7 6 6 6 6 5 5 5 4 4 4 5 6 6 6 5 5 5 5 6 5 5 4 4 4 4 4 4 5 5 5 5 5 5 5 6 6 6 6 6 6 6 6 6 6 6 6 6 6 6 6 6 6 6 6 11 14 17 17 17 17 17 17 16 16 16 16 16 16 16 16
6 9 12 10 11 11 10 9 9 8 9 9 9 8 9 8 7 7 7 6 6 6 5 4 4 5 5 5 5 6 6 5 5 5 5 5 4 4 4 4 4 4 3 5 4 4 4 4 4 5 5 5 5 5 5 5 6 6 5 5 6 6 6 6 6 6 6 6 7 12 14 17 17 17 17 17 17 16 16 16 16 16 16 16 16
11 13 12 10 10 10 10 10 10 9 10 8 8 8 8 8 8 8 8 7 7 6 6 5 6 4 4 4 6 7 6 6 6 5 5 4 4 4 3 4 4 4 3 5 4 4 5 5 5 4 4 4 5 5 5 5 4 5 5 5 5 6 6 6 6 6 6 6 7 12 13 16 18 18 18 18 18 18 17 17 16 16 16 16 16
9 10 11 11 11 13 12 12 11 11 9 9 9 9 8 8 9 9 8 8 8 7 6 6 5 5 4 5 6 7 7 7 6 6 5 4 4 4 3 4 4 4 4 5 5 5 5 4 4 4 4 4 5 5 5 5 6 4 5 5 5 5 6 6 5 4 6 6 5 8 12 15 17 18 19 19 19 19 18 18 17 17 16 16 16
12 12 11 12 13 13 12 13 12 12 10 10 9 8 8 8 8 8 8 8 8 7 7 6 6 5 5 4 6 7 6 6 6 5 5 5 4 4 4 4 4 4 4 4 4 3 3 2 3 3 3 4 5 5 5 6 6 6 5 6 6 6 6 6 5 6 5 5 5 6 11 14 16 18 18 18 18 18 18 18 18 17 17 17 16
16 12 12 13 12 13 14 15 14 13 11 10 9 9 8 9 9 8 8 8 7 8 7 6 6 6 5 4 6 6 6 7 6 5 6 5 5 4 4 4 4 3 4 4 2 2 2 2 3 3 4 5 6 6 6 6 6 6 6 7 7 7 6 7 7 6 6 6 6 7 10 12 15 18 18 18 18 17 17 17 16 16 17 17 17
11 13 13 12 12 13 14 14 13 12 10 10 9 10 8 9 9 8 8 8 8 8 7 7 6 6 6 5 5 6 6 6 6 5 5 6 5 5 5 4 4 3 3 3 1 2 2 3 3 4 5 5 5 5 5 6 6 7 7 7 7 7 7 6 7 6 7 6 7 7 9 12 14 16 17 17 17 16 16 16 16 16 16 17 17
14 16 13 10 12 15 14 14 13 12 11 10 10 10 9 10 9 8 8 7 8 7 7 7 6 6 5 5 5 6 5 5 5 5 6 6 5 6 4 5 3 3 2 2 3 3 3 3 3 3 3 3 4 5 4 5 6 6 6 7 7 7 7 7 7 7 6 6 6 7 7 8 10 14 15 16 17 16 16 16 16 16 16 16 16
11 13 12 12 15 15 14 14 13 13 13 12 11 10 9 8 9 8 7 7 8 7 7 7 7 6 6 5 6 6 5 6 6 5 5 6 5 5 5 4 3 3 3 3 4 3 3 4 3 3 4 3 3 4 4 4 5 6 6 6 6 7 7 7 7 7 6 5 5 5 6 7 8 10 11 12 14 15 16 16 16 16 16 15 16
10 9 11 15 13 10 10 11 13 14 14 11 9 9 9 8 7 7 7 8 7 7 7 7 7 7 6 6 5 6 6 6 6 5 5 6 5 5 6 4 3 3 3 3 3 2 2 3 2 3 3 4 4 4 5 6 6 5 5 6 6 7 7 8 7 7 6 5 4 4 6 6 7 7 7 10 11 12 15 16 16 16 15 15 15
8 9 16 16 14 12 11 10 12 13 13 11 11 10 8 8 8 8 8 8 7 7 7 7 7 7 7 7 6 6 6 6 5 6 6 5 6 6 6 4 4 3 3 1 2 2 2 2 2 3 3 3 3 3 4 5 6 7 7 6 7 7 7 8 8 7 6 5 4 4 5 6 6 6 6 6 7 10 11 14 15 15 15 15 15
14 15 13 12 14 13 13 12 13 13 13 12 10 10 10 8 8 8 8 7 7 7 8 8 7 7 7 6 5 6 6 6 5 5 6 5 6 7 6 4 4 3 2 1 1 2 1 2 2 3 4 3 5 5 5 6 6 7 6 7 7 7 7 7 8 8 6 5 5 5 5 5 5 6 5 6 6 5 9 11 14 16 15 15 15
16 13 14 14 14 13 14 14 15 15 13 11 9 8 9 9 8 9 9 8 8 8 7 7 7 7 7 7 6 6 6 6 5 5 6 6 6 7 6 5 4 4 3 2 1 1 2 2 3 3 4 3 3 5 5 5 7 7 7 7 7 7 8 8 8 7 5 5 5 4 5 5 5 6 5 5 5 5 7 10 13 15 14 13 15
13 14 14 16 16 14 13 13 12 12 11 11 10 10 9 8 7 7 7 8 7 7 7 8 8 7 7 7 7 6 6 6 5 5 6 5 6 6 6 5 5 4 4 3 1 0 2 4 2 1 2 2 3 4 6 6 6 8 8 9 9 7 8 9 8 7 6 6 5 5 6 6 6 6 5 4 4 5 4 7 11 11 10 9 14
12 13 13 12 11 11 10 11 12 12 11 10 9 8 8 6 6 7 7 6 6 6 7 7 7 7 7 8 7 7 7 6 6 5 6 6 6 6 6 5 5 5 4 3 2 2 3 3 2 0 0 0 2 3 4 6 6 7 9 10 8 9 9 9 8 6 6 5 5 5 4 6 5 5 5 4 4 4 4 4 5 5 6 10 12
12 12 13 13 13 12 10 10 11 12 10 9 9 9 8 9 9 6 6 6 6 7 7 8 7 8 8 8 8 7 7 7 6 6 6 6 6 7 6 5 5 5 4 4 4 3 3 2 1 1 2 0 0 2 3 5 6 7 8 8 7 9 10 10 7 5 5 4 4 4 5 5 5 4 4 3 3 3 3 4 4 6 5 6 8
11 13 14 14 15 16 15 16 13 13 13 12 11 12 12 8 7 10 11 9 9 8 7 7 8 7 9 9 8 8 8 8 7 7 7 7 6 6 6 4 5 5 5 5 5 5 3 3 2 1 1 3 1 1 3 5 6 6 4 6 7 6 10 9 5 5 3 4 3 6 6 6 5 5 4 4 4 4 4 5 5 4 6 6 7
11 13 16 16 15 15 17 15 12 13 14 15 13 12 12 13 13 12 10 9 9 9 9 8 8 7 9 9 8 8 8 8 7 7 7 7 7 6 6 6 6 6 5 5 5 4 4 3 3 2 1 1 1 2 3 5 5 7 12 13 4 4 6 2 2 3 8 9 9 7 6 5 6 4 3 3 4 4 5 5 4 6 6 6 7
15 17 15 14 14 15 14 14 14 14 13 13 12 12 8 6 7 7 9 6 3 3 5 5 7 8 8 8 8 8 9 8 8 8 7 7 7 7 7 6 6 6 6 5 4 4 4 4 3 2 1 1 1 1 2 4 2 4 5 4 9 12 2 5 3 10 11 10 6 5 4 4 6 4 3 4 4 4 4 5 6 6 6 7 7
11 10 12 16 13 13 13 14 14 13 12 12 11 8 8 5 4 6 5 4 5 5 5 5 6 7 8 8 7 8 9 9 9 8 7 7 8 8 6 6 6 6 6 5 4 4 4 3 3 2 2 2 2 2 2 3 3 6 6 2 5 3 11 3 13 9 7 7 3 8 7 7 6 6 6 6 5 5 5 5 5 6 6 7 6
13 14 14 15 12 16 15 15 14 14 12 12 12 9 9 7 7 6 5 6 5 5 6 6 7 7 7 8 10 9 9 8 8 8 8 8 7 7 7 6 6 5 5 5 4 5 4 3 4 3 3 1 1 0 1 3 3 2 1 3 4 3 2 6 12 16 3 5 6 8 7 5 5 6 5 5 4 5 6 5 6 5 6 6 6
12 13 14 14 13 13 14 13 11 12 13 13 13 12 12 12 11 11 11 8 9 10 13 15 12 13 14 8 7 8 8 8 8 8 7 7 7 7 6 6 5 6 6 5 4 4 4 4 4 3 2 2 2 1 2 1 2 1 1 4 4 4 7 7 6 8 5 13 12 6 4 4 3 4 4 5 5 6 4 5 4 6 6 7 8
12 10 10 11 12 14 14 15 13 12 11 13 14 12 12 12 16 16 14 15 14 12 9 8 10 8 7 10 9 8 8 9 7 7 7 7 7 7 7 6 6 5 4 5 5 5 5 4 3 3 3 3 3 2 3 3 3 1 2 1 2 3 2 2 5 7 14 1 2 8 6 5 6 6 6 4 5 6 5 4 5 6 6 7 7
11 9 11 10 14 14 14 15 12 12 12 12 14 14 14 13 13 13 12 13 14 13 12 11 8 7 8 9 8 8 7 8 8 7 7 7 7 6 6 5 5 5 5 5 5 4 5 3 3 3 3 3 3 3 2 0 1 2 1 2 3 3 4 4 4 5 8 14 9 5 5 7 5 4 5 10 9 6 5 4 7 7 7 7 7
10 12 13 13 11 11 12 11 12 12 12 15 15 15 14 14 14 12 12 10 9 7 6 7 8 8 9 7 8 8 8 7 8 7 6 6 6 6 6 6 6 5 4 5 4 5 5 4 3 2 2 2 2 2 1 2 2 3 3 2 1 3 3 4 5 4 6 8 15 3 8 3 5 10 10 5 4 7 6 6 6 7 8 8 7
8 8 8 8 9 9 11 13 12 12 12 15 15 15 14 13 14 14 15 11 8 6 8 9 9 9 11 10 9 9 8 7 7 7 6 6 6 6 6 6 6 5 5 5 4 4 4 4 4 3 2 2 2 2 3 3 3 3 3 3 3 3 3 3 2 2 4 7 12 13 10 15 14 4 8 10 8 4 6 8 9 8 8 7 6
6 7 8 9 8 10 11 13 14 11 12 15 15 16 15 14 15 15 15 14 12 11 11 10 9 10 11 10 10 9 8 8 7 7 7 7 6 6 6 6 5 5 5 5 5 5 5 4 3 3 3 3 3 3 2 2 2 3 3 4 5 5 6 4 5 4 3 6 11 13 12 9 12 17 4 5 5 9 10 8 9 7 7 7 6
Wind_Direction
77 99 323 53 84 83 87 84 82 81 79 78 76 81 85 86 83 85 85 86 85 78 76 78 79 79 77 77 76 76 77 77 75 70 68 65 64 65 65 58 54 56 52 52 55 52 53 50 50 43 39 33 33 33 31 28 25 24 23 21 20 20 17 15 14 11 0 351 336 332 327 320 318 317 319 303 300 5 79 47 360 2 1 325 358
151 133 56 70 82 84 86 89 91 88 90 87 84 85 85 87 88 86 87 88 85 83 78 77 75 79 81 78 78 76 76 76 76 77 71 67 63 60 60 58 52 57 59 54 46 47 49 51 56 54 52 45 37 32 26 24 24 23 23 20 18 16 13 11 9 6 358 347 335 328 325 322 320 319 319 347 5 30 87 67 16 19 350 324 9
134 110 83 81 95 93 84 84 84 89 94 94 90 87 93 92 89 88 89 89 90 90 91 84 80 80 82 80 79 77 76 76 75 73 72 68 63 58 56 54 51 55 57 56 50 47 43 45 49 60 59 50 46 42 34 29 28 27 24 20 16 14 13 10 7 2 355 344 337 332 334 331 329 320 331 108 95 98 100 72 59 10 296 346 357
121 135 106 72 103 101 98 91 87 92 95 98 99 101 101 98 97 95 91 88 88 87 86 86 83 81 78 79 79 76 74 73 73 72 71 70 66 60 56 52 52 51 55 59 57 55 56 55 54 55 63 56 50 45 39 32 32 30 26 21 19 16 15 13 9 4 353 342 334 337 338 334 325 313 92 86 87 88 93 81 50 20 8 359 353
132 145 120 88 68 106 109 106 103 97 94 96 100 102 99 97 96 100 97 94 91 91 89 84 81 77 75 76 76 77 77 76 76 74 67 66 63 61 57 52 51 51 50 57 59 57 56 59 63 56 56 54 48 46 41 36 32 29 25 20 18 13 12 14 12 7 354 338 331 338 332 331 317 278 92 90 82 84 86 73 58 24 8 356 358
140 137 123 95 85 124 119 118 117 110 104 102 102 99 98 102 101 100 105 105 107 98 90 87 83 81 78 73 70 70 70 72 72 71 67 65 61 58 56 54 52 52 48 52 53 53 52 55 56 56 50 47 43 42 42 40 38 36 35 33 28 21 18 14 13 3 348 337 335 336 335 338 337 350 77 79 90 90 82 53 31 17 8 5 8
129 134 119 106 101 118 123 124 124 124 121 117 105 100 100 100 98 98 99 101 98 98 99 96 92 88 82 80 77 74 72 70 70 70 71 66 62 58 55 54 54 53 51 51 52 53 51 50 51 52 51 47 43 36 33 33 35 33 31 28 26 20 14 9 3 355 346 341 337 330 330 332 1 351 353 29 77 94 80 54 31 22 22 19 14
120 130 120 118 126 123 127 126 124 127 129 125 123 116 110 105 101 100 97 93 94 93 95 95 94 92 88 85 83 81 78 75 73 72 68 64 62 58 55 50 50 51 52 50 52 52 49 46 45 47 48 48 45 41 36 33 30 30 29 25 20 15 9 4 358 353 346 345 338 327 329 333 353 347 342 343 9 80 68 50 39 20 10 7 353
126 125 120 126 132 126 127 127 129 132 132 129 125 121 116 108 103 98 95 93 91 91 90 89 89 87 84 82 81 79 77 75 72 68 65 62 58 55 53 51 47 46 44 45 45 47 48 46 43 40 40 40 39 38 38 37 36 34 32 29 23 16 8 1 354 351 351 343 334 332 328 330 347 352 343 19 28 68 59 52 35 20 9 0 342
125 120 122 127 138 139 135 129 129 129 125 120 118 116 110 103 99 96 92 89 89 88 87 85 84 80 79 77 76 75 74 71 67 63 60 58 56 54 52 50 47 43 41 40 41 41 42 43 41 40 38 36 31 27 26 26 29 30 31 29 24 21 12 2 354 348 342 335 330 326 322 323 343 352 331 335 351 18 60 64 44 8 353 1 352
127 126 127 139 154 138 132 129 128 125 118 115 113 110 106 102 99 95 93 91 89 87 84 83 80 79 78 77 76 74 73 70 68 64 61 58 55 52 51 49 47 44 41 38 37 38 38 36 35 33 33 31 28 25 22 19 17 19 17 17 16 13 12 2 354 343 335 331 330 325 322 318 322 329 325 337 14 55 86 92 47 15 6 360 357
132 132 131 142 145 133 126 127 128 125 121 117 113 110 107 105 101 99 97 95 91 87 85 83 81 80 79 77 75 75 73 71 68 66 63 59 56 54 51 49 47 45 42 38 35 34 34 32 30 29 27 25 22 20 18 15 14 14 13 10 7 4 3 359 353 339 327 327 327 322 321 322 309 300 308 310 327 359 34 21 13 7 3 358 349
134 131 123 109 121 128 131 131 129 128 127 126 123 118 114 111 108 105 103 102 99 96 94 90 88 86 84 82 80 77 75 72 70 67 63 60 58 55 52 50 48 46 43 41 36 34 32 31 29 26 23 20 16 14 14 14 14 14 12 8 4 358 354 353 347 335 322 319 313 315 313 312 317 304 299 300 314 343 17 22 19 5 360 354 351
138 137 131 124 115 121 127 132 133 133 133 133 130 127 124 120 118 114 111 107 105 103 100 99 97 94 92 89 87 84 81 78 76 72 67 64 61 57 53 50 48 46 44 42 39 35 33 31 28 25 23 20 16 12 13 13 15 15 12 8 1 356 351 348 342 330 321 312 302 302 307 307 309 319 333 324 329 349 25 35 19 7 4 356 353
142 142 141 129 114 118 131 136 140 139 141 139 136 133 131 127 124 122 118 116 113 111 108 105 102 99 97 95 92 88 84 81 78 74 70 66 62 60 57 53 50 47 45 44 42 40 38 35 33 30 26 23 20 19 18 16 15 11 6 2 357 353 353 342 336 328 318 313 311 314 306 307 300 311 313 311 318 331 350 354 3 7 5 3 355
139 144 140 136 130 118 120 133 136 140 143 140 137 134 131 129 127 125 123 120 118 115 111 108 105 102 99 95 92 89 86 83 79 75 72 68 64 60 57 53 50 47 44 41 39 37 36 36 33 33 32 30 30 31 26 23 17 10 5 359 352 347 346 348 331 327 320 314 309 307 307 307 325 332 333 325 315 313 321 337 351 358 357 348 340
143 146 143 149 142 133 127 120 128 131 130 131 133 131 129 128 127 126 125 122 120 116 114 110 106 103 99 95 90 85 82 78 73 71 68 64 60 56 53 51 47 46 43 40 36 33 32 30 29 28 27 27 28 29 28 26 22 17 12 4 355 347 346 355 344 334 325 316 318 325 330 344 339 343 341 337 330 327 324 324 320 321 325 327 326
148 152 155 157 150 147 140 138 119 113 120 123 127 128 128 128 127 125 124 122 120 117 115 112 107 104 98 94 88 80 76 71 66 62 60 56 53 50 48 45 42 41 39 35 31 29 27 25 23 22 23 22 22 22 20 20 19 17 14 7 4 359 359 1 355 342 339 336 336 332 338 330 339 341 339 338 340 341 338 333 328 327 327 326 330
153 158 158 158 159 153 154 148 144 141 132 125 122 129 129 129 129 128 126 124 120 117 114 114 111 104 95 86 81 76 70 66 63 59 56 54 53 48 51 47 45 47 44 41 36 34 32 29 25 24 24 19 17 16 14 13 14 13 10 7 8 10 9 4 356 350 349 350 345 347 338 339 344 340 335 333 332 334 334 332 333 336 334 328 323
162 164 163 167 161 159 164 163 160 159 147 134 126 126 129 129 133 132 130 128 124 121 116 109 105 101 97 92 85 74 67 67 71 62 61 58 55 57 59 53 48 51 47 43 39 37 36 33 29 29 27 23 18 14 10 9 8 7 5 3 8 9 5 359 356 353 348 345 346 345 334 341 341 338 334 331 330 330 327 327 326 323 323 324 321
183 182 173 170 166 165 170 167 171 163 152 140 135 131 133 131 130 132 132 128 122 115 110 107 106 113 110 114 101 90 87 82 84 97 93 88 76 56 71 62 55 58 50 43 39 39 36 34 31 28 24 19 13 6 3 3 3 1 358 358 2 3 357 355 354 350 350 344 343 336 337 343 340 337 335 334 332 329 325 322 322 322 320 319 318
188 187 192 172 169 173 173 174 166 162 153 144 146 146 136 127 131 128 127 125 123 119 118 134 145 158 162 144 138 136 125 128 133 140 152 146 103 78 68 65 57 58 52 44 42 40 36 34 32 29 23 17 9 3 356 353 351 351 351 353 357 351 349 352 351 347 344 340 343 334 342 340 337 334 331 330 329 326 322 319 317 315 314 314 314
198 194 196 184 175 172 172 171 164 160 150 150 152 154 143 140 140 142 142 138 143 136 149 163 157 142 137 143 143 143 138 139 143 160 161 161 95 74 74 69 60 59 55 47 42 40 34 31 31 28 23 15 11 3 358 351 348 348 348 348 346 342 342 345 346 343 336 332 340 332 338 337 335 332 331 329 328 326 325 322 319 316 314 312 312
196 192 185 180 174 174 177 170 163 160 152 154 154 157 156 151 154 154 153 153 153 147 149 151 142 127 134 130 129 131 131 132 116 111 104 84 68 70 71 69 60 57 62 49 38 32 30 22 22 26 21 15 11 3 1 355 353 348 346 344 343 338 339 338 338 332 327 326 328 323 332 333 331 330 328 329 329 328 326 324 322 319 316 314 313
191 173 171 187 182 176 172 173 165 162 155 158 160 168 166 156 159 161 162 158 151 146 151 153 140 131 134 134 133 127 121 116 104 96 93 88 79 81 78 79 74 55 64 56 46 31 28 21 15 17 19 15 9 1 0 355 351 348 343 340 339 336 333 335 332 329 324 323 314 318 325 328 327 326 326 326 325 325 323 322 320 318 317 315 313
158 179 192 187 187 180 173 171 166 166 164 165 170 168 162 163 166 170 166 167 155 157 156 156 141 138 140 145 125 124 123 115 106 109 105 101 91 93 97 98 84 77 75 72 60 44 32 28 21 19 11 15 10 357 353 351 342 341 338 336 334 329 326 325 329 325 319 319 316 318 321 325 324 324 324 323 322 321 321 320 320 318 317 316 315
185 196 187 187 182 181 173 168 171 168 171 171 170 168 172 170 168 170 165 169 164 156 161 157 155 151 146 146 132 136 131 127 117 119 121 117 108 109 102 102 97 82 76 78 56 41 37 22 15 10 2 8 1 356 348 343 339 336 331 329 327 322 319 319 319 317 312 312 312 315 316 319 322 323 323 322 322 323 323 323 320 319 319 319 318
188 191 187 184 182 185 174 171 173 171 174 175 173 173 172 168 170 164 163 167 158 158 162 161 150 141 149 145 140 138 136 130 130 124 135 119 118 117 108 95 91 78 77 73 63 38 29 17 8 358 4 2 359 348 344 336 335 334 329 325 320 315 312 310 305 302 301 301 304 309 309 312 316 319 320 321 323 324 324 324 324 323 323 322 321
197 193 186 184 187 180 173 177 173 175 175 173 175 174 168 167 165 162 166 168 159 161 162 153 146 149 133 129 136 135 130 130 132 139 129 123 114 107 99 100 91 80 77 67 75 55 31 12 1 356 360 2 357 348 342 334 332 333 336 328 327 323 320 317 315 310 305 303 305 306 310 312 315 317 319 321 321 322 324 325 326 327 328 327 327
201 186 182 192 181 178 179 179 176 175 174 172 174 171 169 168 171 167 169 164 164 160 154 149 153 143 139 127 131 134 136 135 135 138 124 123 111 104 95 96 94 88 78 70 71 79 40 9 6 11 14 8 4 345 347 335 334 334 334 328 322 319 318 318 315 313 313 320 323 318 316 313 313 316 319 319 320 322 324 326 328 328 329 328 328
184 190 190 187 180 176 183 178 175 173 169 175 174 174 166 171 171 164 165 165 159 155 150 149 148 146 146 133 125 127 131 127 128 134 122 122 114 109 109 102 86 81 82 60 42 54 41 37 22 18 23 15 358 345 347 338 333 332 327 324 314 314 312 308 304 308 318 322 323 321 316 315 312 312 314 317 319 321 323 325 326 328 329 328 328
189 195 190 175 175 184 179 178 175 174 171 175 174 173 173 170 167 162 165 160 155 154 147 147 151 148 144 138 128 130 129 128 130 129 126 123 122 117 115 100 108 86 74 67 41 41 44 19 22 37 35 28 357 344 341 341 327 316 315 313 310 311 307 304 302 306 309 312 316 314 310 307 308 307 310 313 318 321 322 324 326 327 327 328 328
204 190 177 173 182 180 177 179 174 175 175 174 177 176 170 166 163 169 161 158 156 149 146 151 150 148 142 141 137 137 137 139 141 138 132 130 129 120 105 114 116 98 63 60 56 33 33 22 17 26 24 22 8 343 340 329 314 309 308 302 307 302 297 296 295 298 300 302 304 304 301 301 300 305 308 310 311 316 318 320 324 325 325 328 330
188 180 168 183 181 176 175 173 176 177 179 173 172 171 172 165 162 161 158 157 158 152 149 145 146 145 143 149 142 140 143 145 142 134 131 133 127 124 119 120 122 95 73 68 48 49 38 42 22 36 11 15 5 345 343 330 314 304 301 296 299 291 293 293 289 286 288 290 293 292 291 289 291 298 303 305 306 307 308 312 317 319 322 326 329
167 179 185 184 174 176 172 176 176 176 175 175 173 172 170 163 161 161 163 161 158 153 150 147 147 151 146 152 145 143 144 145 145 136 137 133 132 122 118 140 127 103 90 102 107 46 80 55 46 29 16 11 5 344 333 309 306 308 306 301 293 295 290 287 290 290 289 291 292 283 281 278 282 285 290 292 300 300 297 299 305 311 315 320 325
186 188 184 170 178 176 175 171 172 174 178 174 171 168 168 164 163 160 158 161 157 156 157 156 152 151 151 155 148 144 145 143 141 138 134 137 133 128 138 139 129 115 123 106 95 95 92 53 11 45 29 5 356 336 334 311 303 300 297 295 289 290 290 290 288 285 282 283 274 274 270 273 273 276 275 278 281 286 286 290 294 299 306 313 321
189 178 177 177 176 174 175 169 174 174 173 168 161 160 160 161 163 164 163 160 162 161 158 153 152 154 158 157 154 149 147 144 143 140 139 142 135 133 144 141 142 140 140 131 115 157 104 83 19 44 57 358 352 323 319 311 307 302 301 296 294 294 293 292 285 282 289 275 278 273 274 268 263 259 262 265 272 278 289 286 288 290 295 302 315
186 180 178 176 176 175 175 170 168 168 167 165 163 159 161 153 155 160 162 166 166 163 157 153 158 158 157 159 155 149 151 148 149 146 141 149 145 140 147 147 146 144 143 133 171 144 100 108 87 65 51 20 339 328 314 312 308 307 305 302 300 294 288 288 282 287 280 283 285 286 278 280 279 274 265 261 260 274 283 290 292 296 300 298 311
181 176 171 170 163 167 166 167 164 164 162 158 154 149 146 138 140 153 163 167 166 167 160 157 159 158 160 159 154 152 153 153 155 152 150 153 151 149 148 159 150 147 139 146 142 109 98 93 104 160 131 59 267 285 290 298 307 302 300 298 294 290 284 277 282 285 280 277 284 282 293 283 281 281 283 282 291 297 294 291 290 288 290 297 311
173 168 166 165 165 163 163 162 168 161 155 153 151 152 153 158 157 156 165 178 171 166 172 164 156 158 161 159 158 156 158 158 161 161 157 162 159 157 152 154 151 144 147 149 174 148 131 101 84 16 340 28 194 262 300 314 300 295 287 287 280 285 284 277 287 281 301 303 295 300 296 285 278 282 285 289 311 308 306 300 296 297 300 314 320
168 167 166 170 169 169 165 173 172 164 162 163 168 164 166 163 167 179 178 177 173 168 169 166 165 157 159 159 159 160 162 162 167 162 166 163 158 153 149 160 160 160 166 181 175 167 155 146 144 118 12 358 5 74 337 327 322 309 278 273 293 271 273 282 281 314 314 314 310 313 294 290 292 296 293 314 312 314 320 322 313 307 314 312 310
180 169 173 173 170 169 174 170 170 172 174 173 172 177 179 179 174 181 172 172 164 169 172 179 169 156 158 161 161 164 165 166 169 167 166 165 160 158 162 172 171 174 177 176 169 156 142 122 129 63 66 33 307 46 343 11 13 2 336 331 309 290 269 313 306 31 348 319 310 310 299 292 293 288 307 339 338 338 328 313 307 309 308 311 312
171 176 173 166 171 174 176 171 176 175 179 176 173 180 175 170 171 165 166 161 173 157 156 154 148 155 165 165 163 165 166 170 172 171 168 173 169 163 171 172 173 168 161 167 153 146 141 134 118 118 35 20 332 358 39 70 358 331 293 328 336 349 338 359 6 349 315 303 306 303 298 303 293 300 312 333 327 327 319 309 307 308 309 304 293
167 171 171 173 174 178 177 175 178 179 177 181 176 168 160 139 114 131 127 134 161 150 135 137 145 148 166 171 175 170 171 173 176 172 171 173 168 167 166 169 179 174 169 164 158 147 121 102 102 101 108 27 32 317 64 63 75 10 11 29 300 1 322 338 329 312 315 301 2 325 317 304 306 318 330 330 327 329 309 304 299 299 296 292 288
176 177 174 177 179 180 179 177 178 181 178 175 171 154 138 127 117 107 101 92 86 131 138 166 174 169 159 184 187 175 175 172 174 175 173 173 168 164 166 174 169 175 163 159 157 159 145 136 127 114 122 148 290 259 325 74 52 90 135 355 344 6 227 305 336 305 347 314 314 302 299 291 303 313 323 307 308 299 298 301 300 300 298 295 297
180 184 179 178 172 177 177 179 177 179 180 176 168 162 165 158 152 154 166 169 170 173 186 184 180 184 190 173 167 176 172 174 177 175 174 170 169 168 168 167 172 172 166 164 155 129 122 124 148 136 136 158 182 231 280 27 110 83 179 175 187 237 316 320 345 302 346 301 292 302 297 292 304 309 293 298 297 295 294 293 296 296 292 291 290
189 173 174 177 176 177 179 180 179 180 177 175 171 169 170 176 178 179 178 180 180 198 189 181 182 178 154 175 178 175 177 173 180 177 176 175 168 168 169 172 173 173 169 149 149 148 142 141 134 119 150 151 134 215 266 281 2 220 195 221 258 262 223 295 265 308 312 319 14 316 311 315 299 290 292 281 289 292 289 294 297 293 288 282 282
174 166 175 176 178 180 179 182 181 179 178 173 178 179 178 180 181 184 185 187 190 187 181 182 174 161 168 175 169 177 176 176 174 180 177 172 168 167 167 168 170 178 163 161 155 150 127 114 118 128 125 137 150 178 231 202 232 280 90 314 289 288 293 274 252 257 278 298 294 283 261 282 302 291 290 298 289 278 296 298 293 289 281 277 276
168 175 181 182 179 178 178 178 181 180 179 180 181 186 184 183 184 181 189 199 188 178 166 160 166 166 169 170 174 175 176 178 177 175 177 171 168 168 167 169 170 177 163 155 153 144 140 134 120 117 141 143 151 173 152 199 167 236 316 298 280 257 277 261 273 263 278 297 293 270 301 255 274 290 293 277 291 299 290 287 284 283 283 284 279
178 177 174 167 173 171 177 180 185 184 181 184 185 186 186 180 185 189 189 184 172 155 165 171 173 172 176 176 176 175 177 175 178 175 172 173 168 167 170 173 173 172 162 161 152 136 127 127 138 147 152 166 180 172 193 210 207 224 204 236 272 297 291 281 244 309 269 234 274 303 309 314 310 277 299 291 284 268 285 295 289 280 277 274 277
177 172 173 176 173 177 180 185 189 184 183 187 186 189 188 187 190 188 186 181 177 168 170 182 175 176 182 179 177 177 174 177 169 177 173 169 171 171 171 174 169 168 158 155 161 147 139 134 141 151 171 180 193 187 207 203 199 216 227 213 234 238 239 255 277 284 275 293 305 296 303 292 291 305 262 249 281 290 290 276 275 277 275 276 275